Regional Weather Roundup
Issued by NWS

Home | Current Version | Previous Version | Text Only | Print | Product List | Glossary On
Versions: 1 2 3 4 5 6 7 8 9 10 11 12 13 14 15 16 17 18 19 20 21 22 23 24 25 26 27 28
000
ASUS45 KTFX 291810
RWRMT
MONTANA REGIONAL WEATHER ROUNDUP
NATIONAL WEATHER SERVICE GREAT FALLS MT
1200 PM MDT FRI JUL 29 2016

NOTE: "FAIR" INDICATES FEW OR NO CLOUDS BELOW 12000 FEET WITH NO
SIGNIFICANT WEATHER AND/OR OBSTRUCTIONS TO VISIBILITY.

MTZ001>007-043-291900-
WEST OF THE DIVIDE

CITY           SKY/WX    TMP DP  RH WIND       PRES   REMARKS
KALISPELL      SUNNY     79  54  41 E10       30.04F
MISSOULA       SUNNY     82  48  30 N3        30.05F
BUTTE          SUNNY     77  40  26 NW6       30.18F
MULLAN PASS    SUNNY     73  43  33 VRB3      30.22F
ANACONDA         N/A     75  46  35 NE5       30.14F
DEER LODGE       N/A     79  45  29 CALM      30.15F
EUREKA           N/A     79  52  38 NW3       30.04F
HAMILTON         N/A     77  50  38 CALM      30.07F
LIBBY            N/A     82  52  34 S3        30.02F
PLAINS           N/A     84  46  26 CALM      30.02F
RONAN            N/A     82  54  38 N2        30.10F
$$

MTZ008-052>055-291900-
SOUTHWEST MONTANA

CITY           SKY/WX    TMP DP  RH WIND       PRES   REMARKS
BOZEMAN        SUNNY     77  53  43 CALM      30.13F
DILLON         SUNNY     77  46  33 N10       30.15F
W YELLOWSTONE  SUNNY     75  39  27 S7        30.23F
ENNIS          SUNNY     77  46  33 VRB3      30.20F
THREE FORKS      N/A     78  19  11 CALM      30.10F
TWIN BRIDGES     N/A     78  45  31 NW7       30.11F
$$

MTZ009-010-012-014-046-048-049-054-291900-
EAST SLOPES AND CENTRAL MONTANA

CITY           SKY/WX    TMP DP  RH WIND       PRES   REMARKS
CUT BANK       SUNNY     74  55  51 VRB3      30.11F
GREAT FALLS    SUNNY     76  52  43 CALM      30.10F
MALMSTROM AFB  SUNNY     75  55  49 NE3       30.10F
HELENA         SUNNY     79  52  38 E6        30.08F
CHOTEAU          N/A     77  52  41 VRB6      30.13F
CONRAD           N/A     76  60  57 NW2       30.13F
$$

MTZ011-013-016-021-045-047-050-051-291900-
NORTH CENTRAL MONTANA

CITY           SKY/WX    TMP DP  RH WIND       PRES   REMARKS
HAVRE          SUNNY     79  58  48 W7        30.04F
N BAR RANCH      N/A     79  50  36 NW12      30.14S
CHINOOK          N/A     75  59  57 W6        30.04S
$$

MTZ017>020-022>027-061-062-291900-
NORTHEAST MONTANA

CITY           SKY/WX    TMP DP  RH WIND       PRES   REMARKS
GLASGOW        CLOUDY    74  59  59 SE5       30.03F
JORDAN           N/A     78  57  48 VRB3      30.04F
SIDNEY         PTSUNNY   71  62  73 S5        30.07S
WOLF POINT     PTSUNNY   79  53  40 SE5       30.05S
PLENTYWOOD       N/A     79  55  44 S7        30.05F
POPLAR           N/A     79  54  41 SE3       30.05F
SCOBEY           N/A     75  50  41 SE5       30.04F
$$

MTZ028>42-056>058-291900-
SOUTHCENTRAL AND SOUTHEAST MONTANA

CITY           SKY/WX    TMP DP  RH WIND       PRES   REMARKS
BAKER          PTSUNNY   73  60  63 SE6       30.10S
BILLINGS       MOSUNNY   79  50  36 E7        30.08F
LIVINGSTON     SUNNY     79  49  34 VRB3      30.12F
MILES CITY     CLOUDY    78  56  46 SE6       30.05F
EKALAKA          N/A     76  54  46 NE5       30.07F
FORSYTH          N/A     79  54  41 NE3       30.05R
LAUREL           N/A     78  53  41 NE5       30.07F
ROUNDUP          N/A     79  51  37 CALM      29.99F
$$

REGIONAL REPORTS...DAKOTAS

CITY           SKY/WX    TMP DP  RH WIND       PRES   REMARKS
WILLISTON      MOSUNNY   77  51  40 CALM      30.06F
MINOT          PTSUNNY   80  61  52 SE7       30.05F
DICKINSON      PTSUNNY   72  57  59 S8        30.07F
BEACH          CLOUDY    68  63  83 SE7       30.12F
CROSBY           N/A     73  55  53 SW7       30.08F
WATFORD CITY     N/A    N/A N/A N/A MISG        N/A
BISMARCK       PTSUNNY   76  59  55 CALM      30.07F
GRAND FORKS    CLOUDY    77  54  44 VRB5      30.06F
FARGO          CLOUDY    77  58  51 N5        30.07F
BUFFALO SD       N/A     75  59  57 VRB5      30.03F
RAPID CITY     MOSUNNY   77  56  48 MISG      30.10F
$$

REGIONAL REPORTS...WYOMING/IDAHO/WASHINGTON

CITY           SKY/WX    TMP DP  RH WIND       PRES   REMARKS
GILLETTE       SUNNY     78  53  41 CALM      30.11S
SHERIDAN       SUNNY     82  49  31 VRB3      30.09F
BUFFALO WY     MOSUNNY   79  45  29 N3        30.15F
CODY           SUNNY     79  50  36 N9        30.13F
YELLOWSTONE LA   N/A     65  47  52 VRB3      30.33F
IDAHO FALLS    SUNNY     80  38  22 VRB6      30.11S
SALMON         SUNNY     79  48  34 CALM      30.05F
BOISE          SUNNY     87  45  23 NW6       29.99S
SPOKANE        MOSUNNY   87  51  28 NE5       29.98F
$$

REGIONAL REPORTS...ALBERTA

CITY           SKY/WX    TMP DP  RH WIND       PRES   REMARKS
EDMONTON       SUNNY     77  59  53 W2        29.95F
CALGARY        MOSUNNY   75  52  43 S3        30.06F
LETHBRIDGE     MOSUNNY   75  59  57 VRB5      30.06F
MEDICINE HAT   MOSUNNY   81  57  44 VRB3      30.03F
WATERTON GATE    N/A     77  54  44 E5          N/A
CARDSTON         N/A     77  54  44 S1          N/A
MILK RIVER       N/A     75  55  50 N3          N/A
ONEFOUR          N/A     75  50  41 NW9         N/A
$$

REGIONAL REPORTS...SASKATCHEWAN

CITY           SKY/WX    TMP DP  RH WIND       PRES   REMARKS
SWIFT CURRENT  MOSUNNY   73  61  64 W7        30.03S
REGINA         PTSUNNY   73  61  64 S5        30.00F
SASKATOON      CLOUDY    68  63  83 W6        30.00S
CYPRESS HILLS    N/A     70  55  60 W5          N/A
VAL MARIE        N/A     73  57  56 S3          N/A
ASSINIBOIA       N/A     75  61  60 SW5         N/A
$$




USA.gov is the U.S. government's official web portal to all federal, state and local government web resources and services.